Wind_Speed
10 11 12 12 12 12 13 13 13 13 13 14 14 15 15 15 15 16 16 17 18 20 21 23 26 28 30 33 35 38 40 42 43 44 44 44 44 43 41 40 38 36 35 33 32 31 30 28 28 27 26 25 24 22 21 20 16 12 10 10 8 8 10 10 9 9 9 8 8 11 12 13 16 19 21 24 26 28 30 33 35 35 34 34 34 35 35 35
11 12 13 14 14 14 14 14 14 14 15 15 15 16 16 16 17 17 17 18 18 19 20 22 24 26 28 31 33 36 38 41 42 43 44 45 45 44 43 42 40 39 37 35 34 33 32 31 29 29 28 27 25 24 22 20 18 14 12 12 10 10 11 12 10 8 8 7 7 10 11 12 14 17 20 22 25 27 29 32 34 35 35 34 34 35 35 35
12 13 14 15 15 16 16 16 16 16 16 16 17 17 17 18 18 18 19 19 19 19 20 21 23 24 26 29 31 34 36 39 41 43 44 45 46 46 45 44 43 41 39 37 36 35 34 33 32 30 29 28 27 25 23 21 19 16 14 13 11 11 10 11 10 8 8 6 7 9 10 12 14 16 19 21 23 25 28 30 33 35 35 34 34 34 35 35
13 14 15 16 17 17 18 18 18 18 18 18 18 19 19 19 19 20 20 20 20 20 21 21 22 23 25 27 29 32 34 37 40 41 43 45 46 47 47 46 45 43 41 40 39 37 36 35 34 32 31 30 29 27 25 23 21 18 16 14 12 11 9 9 9 8 8 5 6 8 9 11 13 15 18 20 21 24 26 28 31 33 35 35 34 34 34 34
14 15 16 17 18 19 19 19 20 20 20 20 20 20 20 20 20 20 21 21 22 22 22 22 22 23 24 25 27 30 32 35 38 39 41 44 46 47 47 47 46 45 43 42 41 40 39 38 36 34 32 31 30 28 27 24 22 19 17 15 12 11 9 8 8 8 7 4 5 6 8 9 11 13 16 19 20 22 24 26 29 31 34 35 35 34 34 33
15 16 17 18 19 20 21 21 21 21 22 22 21 21 21 21 21 21 22 22 23 23 23 23 23 24 24 24 26 29 31 33 36 38 40 42 45 47 48 48 48 47 45 44 43 42 41 39 38 36 34 33 31 30 28 26 23 20 19 17 13 10 8 9 9 9 8 4 4 6 6 7 9 11 14 17 19 20 22 24 27 29 32 34 35 35 34 33
16 18 19 19 20 21 22 22 23 23 23 23 23 23 23 22 22 22 22 23 23 24 24 24 24 25 25 25 26 28 30 32 34 37 39 41 43 45 47 48 48 48 47 46 45 44 43 41 39 38 36 35 33 31 30 28 26 22 20 19 15 12 10 11 12 10 9 6 4 5 6 6 7 9 12 15 18 19 20 22 25 28 30 33 34 35 34 33
17 19 20 21 21 22 23 24 24 24 24 25 25 24 24 23 22 22 22 22 23 24 25 25 26 26 26 27 27 28 29 31 33 36 38 39 41 43 45 47 48 48 48 48 47 46 44 43 42 40 38 36 34 33 31 30 28 24 22 21 18 17 14 12 13 12 11 8 3 4 6 5 6 8 11 13 15 18 19 20 23 26 28 30 32 34 35 33
19 20 21 22 23 23 24 25 25 25 25 25 25 25 25 24 23 22 22 22 22 23 24 25 26 27 27 28 29 29 30 31 32 34 36 38 39 41 43 46 47 48 49 49 48 47 46 45 44 42 40 38 36 35 33 32 30 26 24 23 22 21 18 14 13 13 12 8 3 4 5 4 5 7 9 11 13 16 18 19 21 24 26 28 30 32 34 34
20 21 22 23 23 24 25 25 26 26 26 26 25 25 25 24 23 23 22 22 22 22 23 24 26 27 28 29 30 31 32 32 33 34 35 37 38 39 41 44 46 47 49 50 49 48 48 47 45 44 42 41 39 37 35 34 32 29 26 25 25 25 23 17 14 15 13 8 4 5 5 5 5 6 8 9 10 13 16 17 19 21 23 25 28 30 33 33
21 22 23 23 24 24 25 25 26 26 26 26 25 25 25 25 24 23 22 22 22 22 22 23 25 27 28 30 31 32 33 33 33 34 34 36 37 39 40 42 44 46 48 50 49 49 49 48 47 46 45 44 42 40 37 36 34 32 29 28 27 26 25 20 16 16 14 9 7 6 7 6 5 5 7 8 9 10 14 16 17 18 21 23 26 28 31 32
23 23 24 24 25 25 25 25 26 26 26 26 26 25 25 25 25 24 23 22 22 22 22 23 24 26 28 29 31 33 34 34 34 35 35 36 37 38 39 41 42 45 47 49 49 49 49 49 48 48 47 46 44 42 39 38 36 34 32 30 29 28 26 22 19 17 14 11 9 9 8 7 6 5 6 7 7 8 10 14 15 17 19 21 23 26 28 30
25 25 25 25 25 26 26 26 26 26 26 26 26 26 25 25 25 25 24 23 23 23 22 22 23 25 27 29 31 33 34 35 35 36 36 36 37 38 38 39 41 43 45 47 48 49 49 49 49 49 49 48 46 44 41 40 38 37 35 33 31 29 27 24 22 20 17 14 12 11 9 7 7 6 6 6 6 7 7 11 14 15 17 19 21 24 25 27
26 26 27 27 27 27 27 26 26 26 26 26 26 26 26 25 25 25 25 24 23 23 23 23 23 24 26 28 30 32 34 35 36 37 38 37 37 38 38 39 40 41 43 45 47 48 49 50 50 50 50 49 49 46 44 42 40 39 37 35 34 32 29 27 25 23 20 18 16 14 12 9 7 7 7 6 5 6 6 8 11 14 16 17 19 21 22 24
28 28 28 28 28 28 28 28 27 26 26 27 27 26 26 25 25 25 25 25 24 23 23 23 23 24 25 27 29 31 33 34 36 37 38 39 39 38 39 39 39 40 42 43 45 47 48 50 51 52 51 51 50 49 46 44 42 41 40 38 36 34 31 29 28 26 24 22 19 15 13 10 7 7 7 6 4 5 4 5 7 10 13 15 17 18 19 21
29 30 30 29 29 29 29 29 28 28 27 28 28 27 26 26 26 25 25 25 25 25 24 23 23 24 25 26 28 30 32 33 35 37 38 39 40 40 40 40 40 40 41 42 44 46 48 49 51 52 52 52 51 50 48 46 44 43 42 40 38 36 34 31 30 29 28 26 22 16 14 11 7 6 7 6 5 5 4 4 6 7 10 13 14 15 17 19
31 31 31 31 31 31 31 30 30 29 29 28 28 28 27 26 26 26 25 25 25 25 25 24 24 24 25 26 27 29 31 32 34 36 38 39 41 41 41 41 41 41 42 42 43 44 46 48 51 52 52 52 52 51 49 47 46 45 44 43 41 39 36 34 32 31 30 29 24 18 17 15 9 6 8 8 6 7 7 5 4 6 8 10 12 13 14 17
32 32 32 32 32 32 32 32 31 31 30 30 29 29 28 27 27 26 26 25 25 25 25 25 25 25 25 25 26 28 30 31 33 35 37 39 41 42 42 42 42 42 42 42 42 43 45 47 49 51 53 53 53 51 50 49 48 47 46 45 43 41 39 37 35 33 32 30 26 21 19 18 13 9 10 10 8 7 9 7 5 5 7 8 9 10 12 14
33 33 34 34 34 34 34 33 33 32 32 31 30 30 29 28 27 27 26 26 25 25 25 25 25 25 26 26 26 28 29 31 32 34 36 38 40 42 43 43 43 43 43 43 42 42 43 45 48 51 52 52 52 51 51 50 50 49 48 47 45 43 41 40 38 35 33 31 28 24 21 20 16 12 13 14 11 9 10 9 8 6 5 6 7 8 10 12
35 35 35 35 35 35 35 35 34 34 33 33 32 31 30 30 29 28 27 27 26 25 25 25 25 25 26 26 27 27 28 30 31 33 35 37 39 41 42 43 44 44 44 44 43 43 44 45 48 51 51 50 51 52 52 52 51 50 50 49 47 45 44 42 40 37 35 33 30 26 24 22 18 15 17 17 14 13 13 11 10 9 7 6 6 7 7 9
36 36 36 36 36 36 36 36 35 35 35 34 33 32 32 31 30 29 29 28 28 26 25 25 25 25 26 27 27 28 28 29 31 32 34 36 37 39 42 43 44 45 45 45 45 44 44 45 48 49 48 48 50 52 53 53 52 52 52 51 49 47 46 44 42 40 37 36 33 29 27 24 21 20 21 20 18 16 14 13 13 11 9 7 6 6 5 6
36 37 37 37 37 37 37 37 36 36 36 35 34 34 33 33 32 31 29 29 29 28 27 25 25 25 26 26 27 28 28 29 30 32 33 35 36 38 41 42 44 45 46 46 46 45 46 46 46 45 45 47 50 52 54 53 52 52 53 52 51 49 48 45 43 42 40 38 36 32 29 27 26 25 24 22 20 18 15 15 15 13 11 9 7 6 4 4
37 37 37 38 38 37 37 38 37 37 37 36 35 35 34 33 33 31 30 29 29 29 28 27 25 25 25 26 27 28 28 29 30 31 32 34 35 37 39 41 43 44 46 46 47 47 47 46 45 45 46 48 49 51 53 53 53 53 54 54 53 51 49 47 46 44 42 40 38 35 32 31 29 28 26 23 21 19 16 16 17 15 13 11 9 7 5 2
37 37 37 38 38 38 38 38 38 38 38 37 36 35 34 33 32 32 30 29 29 29 28 28 26 25 25 26 27 28 29 29 30 31 32 33 34 36 38 40 42 43 45 46 47 48 47 47 46 46 46 47 49 50 52 53 54 54 55 55 54 52 51 50 49 47 45 43 41 38 35 34 32 30 29 26 22 20 18 17 18 16 15 13 10 9 7 3
37 37 37 38 38 38 38 39 38 37 37 36 35 34 33 33 32 31 30 29 29 28 28 28 27 26 25 25 26 28 28 29 30 31 32 33 34 35 36 38 40 43 45 46 47 48 48 48 48 47 47 47 48 48 50 52 53 55 56 55 54 53 52 52 51 49 47 45 43 41 39 37 34 31 31 29 24 22 20 19 18 17 16 15 12 10 9 5
38 38 38 38 38 39 39 38 37 36 35 34 33 32 32 32 32 31 30 29 29 28 28 27 26 26 26 26 27 28 28 29 30 31 32 32 33 34 35 36 39 41 44 46 47 47 48 48 48 48 48 48 48 48 49 51 52 54 55 55 55 54 53 54 53 52 50 47 46 44 42 40 37 34 33 31 29 26 23 21 19 18 17 16 14 12 11 8
38 38 38 38 38 37 37 36 36 35 34 34 33 32 32 32 32 32 31 30 29 28 27 26 26 25 26 26 27 28 28 28 29 30 31 32 32 33 34 35 37 40 42 44 46 47 48 48 48 49 49 49 48 49 49 50 51 53 54 54 54 54 54 54 54 54 52 50 48 46 44 42 40 37 34 33 32 30 26 23 20 18 18 17 16 14 12 10
39 38 38 37 36 35 35 36 36 34 34 34 33 32 32 32 32 33 32 31 30 29 28 26 26 25 26 27 27 28 27 28 28 30 31 31 32 32 33 34 36 38 40 43 44 46 47 48 49 49 49 49 49 49 49 49 49 50 52 53 54 54 55 55 55 55 54 52 50 48 46 44 42 41 37 34 33 31 29 26 22 20 19 19 18 16 14 12
39 38 36 35 35 34 34 35 35 34 33 33 32 31 31 30 31 32 32 31 30 30 29 27 26 25 26 27 27 27 28 28 28 29 30 31 31 32 32 33 35 36 39 41 43 45 47 48 49 49 49 49 50 50 49 49 49 49 50 53 54 55 56 56 56 56 55 54 52 50 48 46 45 43 41 37 34 32 30 28 25 23 22 21 19 18 16 14
37 37 35 32 32 32 32 32 34 32 30 31 30 29 29 29 29 31 31 31 31 31 31 29 27 26 26 27 27 27 28 28 28 28 29 30 31 31 31 32 33 35 37 39 41 44 46 48 48 49 49 49 50 50 50 50 49 49 50 52 53 55 56 57 57 57 56 55 54 52 50 48 46 45 43 40 37 34 32 30 27 26 25 23 21 20 18 16
33 34 33 31 29 29 30 30 31 30 28 28 29 29 29 29 30 31 32 32 32 32 32 31 29 27 26 26 27 27 28 28 28 28 28 28 29 30 30 31 32 34 36 37 40 42 44 47 48 48 48 49 50 50 50 51 50 50 51 51 52 54 55 57 58 58 57 56 55 54 53 51 49 47 45 43 41 38 35 33 30 28 26 25 24 22 20 18
30 30 30 30 29 28 29 29 30 29 28 29 30 31 31 32 33 33 33 34 34 33 32 32 31 29 26 26 27 27 27 27 27 28 28 28 29 29 30 30 32 33 34 36 38 40 43 45 46 47 47 48 49 49 50 51 51 51 50 50 51 52 54 56 57 57 57 57 56 55 55 53 51 49 47 46 44 42 40 38 35 31 28 27 27 25 23 21
29 28 29 30 31 30 30 30 30 30 31 32 33 34 35 36 36 34 34 36 36 35 34 33 31 30 28 26 26 27 27 26 26 27 27 27 28 28 29 29 30 31 33 35 37 39 41 43 44 45 46 48 48 49 50 51 52 51 51 50 50 50 52 53 55 56 57 57 56 56 56 55 53 51 50 48 47 45 44 42 39 36 32 29 28 27 25 24
30 30 30 31 32 33 33 32 33 33 33 34 35 36 36 37 36 34 34 35 36 36 36 34 32 30 29 28 26 26 26 26 26 26 26 27 27 27 28 28 29 30 32 33 35 37 39 41 42 44 45 47 48 49 50 51 52 52 52 51 51 51 51 52 53 54 55 56 56 57 57 56 55 53 52 50 49 47 46 44 42 39 36 33 31 29 28 26
30 29 30 31 31 32 33 32 33 33 34 35 35 35 36 36 34 33 33 34 35 36 37 36 34 31 30 30 28 26 25 25 26 26 25 26 26 27 27 27 28 28 30 32 33 35 36 39 40 42 44 46 47 48 49 50 50 51 52 53 52 51 51 51 51 52 53 55 56 57 58 57 56 55 54 52 51 49 48 46 44 42 40 37 34 32 30 28
30 28 29 31 31 31 32 32 32 32 33 34 34 35 36 34 33 32 32 33 34 35 36 36 35 32 30 31 30 27 25 24 24 25 25 25 25 26 26 26 26 27 28 30 31 32 34 36 38 40 43 45 45 46 48 49 49 51 52 53 52 51 51 51 51 52 52 53 54 56 57 58 57 56 55 54 53 51 50 48 46 44 43 41 38 36 33 30
31 29 30 32 32 32 33 33 33 33 33 33 34 36 36 34 32 32 32 33 33 34 36 36 35 34 32 31 31 28 26 24 23 24 24 24 25 25 26 26 26 26 27 28 29 30 32 34 36 38 40 42 43 44 47 48 49 50 51 52 52 52 52 52 52 52 52 53 54 56 57 58 57 57 56 56 55 53 52 50 49 47 46 44 42 40 38 34
33 31 31 33 34 34 34 34 35 34 34 34 35 37 36 33 31 30 31 33 33 34 35 36 36 35 33 32 31 29 27 26 24 23 23 23 24 25 25 25 25 25 26 27 28 28 30 32 34 36 38 39 40 42 44 46 48 49 50 51 52 52 52 52 51 51 52 52 53 55 56 58 58 58 57 57 56 55 54 53 51 50 49 47 45 43 40 37
37 35 35 36 37 37 37 36 36 36 35 36 37 37 36 33 29 28 31 33 33 34 35 35 36 35 33 32 31 29 28 27 25 24 22 22 24 25 24 24 24 24 25 25 26 27 29 30 32 34 36 37 38 39 41 44 46 48 49 50 51 51 52 52 52 52 52 52 52 53 55 56 58 59 58 58 58 57 56 55 53 52 51 49 47 45 42 40
41 41 40 40 40 40 39 38 38 37 36 37 37 37 36 33 29 28 30 32 33 34 35 35 36 35 33 32 31 29 28 27 26 25 23 22 23 24 24 23 23 23 23 24 24 26 28 29 31 33 34 35 36 38 40 41 44 46 47 49 50 51 51 52 53 53 52 52 51 51 52 54 56 57 58 58 58 58 58 56 55 54 53 51 49 47 45 42
44 44 44 43 43 42 41 40 39 38 37 37 37 37 36 34 31 29 30 31 33 34 34 35 36 35 34 33 31 30 28 27 26 24 24 23 24 25 24 22 22 22 23 23 24 25 27 28 29 31 32 33 34 36 38 39 41 44 45 47 49 50 51 52 52 53 54 53 52 51 51 52 53 55 56 57 58 58 58 58 57 55 54 53 51 49 47 45
45 44 45 44 43 43 43 41 40 38 37 37 37 37 36 35 33 30 30 32 34 34 34 35 35 35 35 33 32 30 29 28 26 25 24 24 25 25 24 22 22 21 21 22 23 24 25 26 27 29 31 32 33 34 36 38 39 41 43 45 47 49 50 51 51 53 54 54 53 53 52 53 53 53 54 55 56 57 58 58 58 57 55 54 53 51 49 48
43 43 44 44 43 43 43 41 40 39 38 39 40 39 38 37 35 33 33 34 35 35 35 35 34 34 35 34 32 31 31 30 28 25 25 25 26 26 24 22 22 21 21 21 21 22 24 25 26 27 29 30 31 32 34 36 38 39 42 44 46 47 49 50 50 51 53 54 54 53 53 53 54 53 53 53 54 54 56 57 57 57 56 55 54 53 51 50
44 43 44 45 44 44 43 42 42 41 41 42 43 42 40 39 38 37 36 35 36 36 36 35 34 34 35 34 33 32 30 30 29 27 26 26 26 27 25 24 23 23 21 20 19 20 22 23 24 26 27 29 30 31 32 34 36 38 40 43 45 46 47 48 49 50 51 53 54 54 54 54 54 54 54 53 53 53 54 55 56 57 57 56 55 54 53 52
46 45 45 47 47 46 46 45 45 45 45 46 45 44 44 42 41 40 39 37 36 37 37 36 35 35 35 35 33 32 31 30 30 29 28 28 27 27 26 25 26 25 23 20 19 19 20 21 22 24 26 28 29 30 31 33 34 36 39 41 43 44 46 47 48 49 51 52 53 54 54 54 54 54 54 54 54 54 54 54 55 55 56 56 56 55 54 54
49 47 46 48 48 48 48 48 48 48 49 49 48 47 46 45 44 42 40 38 36 37 39 39 36 35 35 35 34 33 32 31 32 32 31 30 29 28 27 26 27 27 25 22 20 20 21 21 21 22 24 26 28 29 30 32 33 35 37 39 40 42 44 45 47 48 50 51 52 53 54 54 55 55 55 55 55 54 54 54 54 54 55 56 56 56 56 56
51 49 48 48 49 49 49 50 49 49 50 51 50 48 47 46 45 44 42 39 37 38 41 41 37 36 36 36 34 33 33 33 32 32 33 32 31 29 27 27 28 28 28 26 24 23 23 23 23 23 23 24 26 28 29 31 33 34 35 36 38 39 41 43 45 47 48 50 51 52 53 54 55 56 56 56 56 55 55 54 53 53 54 55 56 57 57 58
52 51 49 49 50 50 50 50 50 49 49 50 49 48 47 47 46 45 43 42 40 40 42 41 39 38 38 37 36 35 33 33 33 33 33 34 33 32 30 28 28 30 30 29 28 27 26 26 26 26 24 24 24 26 28 30 31 33 34 35 36 37 39 41 43 45 47 48 50 52 53 54 55 56 57 56 57 57 57 56 54 53 54 55 56 57 57 58
54 52 51 50 50 51 51 52 51 50 49 49 48 47 46 46 47 46 45 44 43 43 43 41 40 40 39 39 38 36 33 33 34 35 35 36 35 35 34 32 32 32 32 32 31 30 30 30 29 28 27 25 24 24 26 27 29 31 33 34 35 36 38 39 40 42 45 47 49 51 52 53 55 56 56 57 58 58 58 58 56 54 54 55 55 56 58 58
54 53 52 50 50 50 51 51 52 51 49 48 47 46 45 46 47 47 47 47 45 45 44 41 40 40 41 39 38 37 35 35 37 37 37 38 38 37 37 37 36 35 34 34 34 33 33 33 31 30 30 29 27 25 24 25 26 28 31 33 34 36 36 37 39 41 43 45 47 49 51 53 54 55 56 57 58 59 59 59 58 57 56 56 56 57 58 58
54 52 52 51 50 50 50 50 51 51 50 49 48 47 46 47 48 48 49 49 47 46 44 42 40 41 42 40 38 38 37 37 39 39 39 40 39 37 38 38 38 37 37 37 37 37 36 35 33 32 33 32 30 27 25 25 25 27 29 31 33 35 35 36 38 40 42 43 45 47 49 51 53 54 55 56 58 59 60 59 59 59 58 58 57 58 58 58
51 51 50 50 49 49 49 49 50 51 51 50 50 50 50 50 50 51 51 51 49 47 44 42 41 42 42 41 39 39 38 39 41 41 40 39 39 37 37 37 37 38 39 40 40 39 37 35 34 33 34 33 32 30 27 27 27 27 27 29 31 33 34 35 37 39 40 42 43 45 47 50 52 53 54 55 57 58 59 60 60 60 60 59 59 58 58 58
Wind_Direction
277 278 278 277 277 276 276 275 274 273 272 271 272 271 270 267 264 261 258 253 248 244 242 241 238 234 231 230 229 229 229 229 229 228 227 227 228 228 229 229 229 230 231 230 229 229 229 229 227 227 228 230 232 234 239 243 243 239 245 255 263 280 287 295 322 346 343 337 5 28 23 19 29 33 31 30 31 29 29 33 35 34 34 34 33 33 34 34
275 277 278 279 280 280 279 279 279 278 277 276 274 273 272 271 268 265 261 258 254 249 245 242 241 238 235 232 230 230 230 230 229 229 229 228 228 228 228 228 229 229 230 230 230 229 229 229 228 227 228 229 231 233 236 240 241 237 239 248 262 277 285 294 311 331 330 331 0 22 24 18 27 35 34 32 32 30 29 32 36 36 35 34 34 34 34 34
275 277 278 280 281 282 283 283 283 282 282 281 279 277 275 272 270 268 265 261 258 254 250 245 242 241 239 236 233 231 231 230 230 229 230 229 228 228 228 228 228 229 229 229 230 230 230 230 229 228 227 229 230 232 234 237 238 235 237 243 258 272 281 296 309 317 311 327 359 10 19 16 20 34 38 35 33 32 29 30 35 37 36 35 34 34 34 34
277 280 282 283 284 285 286 286 286 286 285 284 283 282 279 276 273 270 268 265 261 257 254 250 245 242 241 240 237 234 232 231 230 229 230 230 229 228 228 228 228 228 228 229 229 230 230 230 230 229 228 228 229 231 233 235 236 233 233 238 249 260 271 294 306 302 295 331 1 357 14 15 12 27 39 38 36 34 31 30 33 37 38 36 34 34 34 34
281 283 285 287 288 289 289 290 290 290 289 288 287 285 283 280 276 272 269 266 263 259 255 252 249 245 241 240 240 237 234 233 231 230 230 230 230 229 229 229 229 228 228 228 229 230 230 230 230 230 229 229 229 230 232 234 235 232 230 232 238 248 267 283 283 277 279 333 359 348 10 17 9 19 37 41 38 36 33 31 32 36 38 37 35 34 34 33
284 286 287 289 291 292 292 293 294 294 294 293 291 289 287 283 280 276 271 267 264 261 257 253 250 248 244 240 240 239 237 235 232 230 230 230 230 230 230 229 229 229 228 228 229 229 230 231 231 230 229 229 229 229 230 232 233 231 228 229 231 236 255 264 257 255 267 305 345 340 359 19 13 15 33 42 40 38 35 32 31 34 38 38 36 35 34 32
287 289 290 291 292 293 294 295 296 297 297 297 296 294 291 288 284 279 274 269 265 261 258 255 251 248 246 242 240 239 239 237 235 232 230 230 230 230 230 230 229 229 228 228 228 229 230 231 231 230 230 229 229 228 229 230 231 230 226 225 225 221 223 242 245 241 258 287 329 334 343 15 20 16 28 39 42 39 37 34 33 33 36 38 37 35 35 33
288 290 291 292 293 294 296 297 298 298 299 298 298 296 294 291 287 283 277 272 266 262 258 255 252 249 246 244 241 239 239 238 237 234 231 229 230 230 230 230 230 229 229 228 228 228 229 230 230 230 230 229 229 229 229 229 229 228 226 223 222 221 217 231 244 242 255 277 314 327 324 351 16 19 22 32 41 41 38 36 34 34 34 37 38 37 36 34
288 290 292 293 294 295 296 297 298 299 299 299 298 297 296 293 290 286 281 275 269 264 259 256 253 250 247 244 242 240 239 237 238 237 234 230 229 229 230 230 230 230 229 228 228 228 229 229 230 231 230 229 229 228 228 228 229 228 226 223 222 226 225 230 247 251 256 268 296 309 301 320 360 15 15 21 36 42 40 37 36 35 34 36 38 38 37 35
290 291 292 293 294 295 296 297 298 299 299 299 298 297 295 294 291 288 284 279 273 267 261 257 253 250 247 245 242 241 239 237 237 237 236 233 230 229 229 230 230 230 230 229 228 228 228 229 230 231 230 229 228 227 227 227 228 227 226 225 223 227 230 231 243 252 255 260 276 286 280 292 332 358 5 10 23 39 42 38 38 37 36 35 36 38 38 36
291 292 292 293 294 295 296 297 298 299 299 299 298 296 295 293 291 289 286 282 277 271 264 259 254 250 248 245 243 242 240 239 237 237 237 235 233 230 229 229 230 230 230 229 228 228 228 228 229 230 230 229 228 227 226 226 227 227 226 226 226 228 230 229 235 244 249 253 262 270 270 274 298 332 352 359 7 30 43 41 38 37 38 37 36 37 37 36
292 292 293 293 294 295 296 297 298 299 299 298 297 296 295 293 291 289 286 283 279 274 268 262 256 252 249 246 244 243 241 240 238 237 236 235 235 233 230 229 229 230 230 230 229 228 228 228 228 229 229 230 229 227 226 226 226 226 226 226 226 229 230 227 229 236 240 244 252 260 262 264 281 308 332 344 350 9 39 44 38 35 38 38 37 37 36 36
293 293 293 294 294 295 296 297 298 299 299 298 297 296 295 293 291 290 287 284 280 276 272 266 259 254 250 247 245 244 242 240 239 238 236 234 234 234 232 230 229 229 230 230 230 228 228 228 228 228 229 229 229 228 226 226 226 226 226 225 226 228 228 226 226 230 234 236 241 250 249 252 277 298 312 323 335 347 23 44 40 35 35 37 39 38 36 36
294 294 295 295 295 296 297 298 299 299 299 298 297 296 294 292 291 290 288 285 282 278 274 269 264 258 253 249 247 245 243 241 240 239 237 235 234 234 234 232 230 229 229 230 230 229 228 227 227 228 228 228 229 228 226 226 226 227 226 226 226 227 227 226 225 228 231 233 236 246 250 251 276 294 295 298 318 333 357 32 36 35 33 34 40 40 37 36
294 295 295 296 297 298 299 299 300 300 300 298 296 295 293 292 290 289 288 286 283 280 275 271 267 262 257 252 248 246 244 242 241 240 238 236 234 234 234 233 231 229 229 229 230 229 228 228 227 227 228 228 229 228 227 225 225 226 227 226 226 227 227 226 226 227 230 234 235 242 251 252 268 285 282 281 294 310 337 12 18 27 30 31 39 41 37 36
294 295 296 297 298 299 300 301 301 301 300 298 296 295 293 292 290 288 287 286 285 281 277 273 269 265 261 255 251 248 245 243 242 241 239 237 235 233 233 233 232 230 229 228 229 229 228 228 228 228 227 228 229 228 227 226 225 226 227 227 226 226 227 227 226 227 230 233 233 236 246 244 243 266 275 270 265 275 297 351 359 5 19 28 38 40 36 35
294 295 297 298 300 301 301 302 302 301 300 298 296 295 294 293 292 290 287 286 284 283 280 275 271 266 263 259 254 251 247 243 242 242 240 238 237 234 233 232 232 231 229 228 228 229 229 229 229 228 227 227 228 228 228 227 225 226 227 228 227 226 226 227 227 227 229 233 232 232 242 243 235 246 265 259 248 261 281 311 342 347 360 18 34 37 36 36
294 296 297 299 301 302 302 302 302 301 300 298 297 296 295 294 293 291 289 286 284 282 280 277 273 269 265 261 257 254 250 246 243 242 241 239 238 236 234 232 232 232 231 229 228 228 229 229 230 229 228 227 228 228 228 227 226 226 227 228 227 226 226 227 227 227 229 232 231 228 236 245 244 245 255 251 239 246 269 285 303 327 344 359 17 30 35 38
295 297 299 300 301 302 302 302 301 301 300 299 298 298 297 296 294 292 289 287 284 281 279 277 274 271 267 263 259 256 252 248 245 242 241 240 239 237 236 233 232 231 231 230 228 227 228 229 230 230 228 227 228 228 227 227 226 226 226 227 227 227 227 227 227 227 228 230 230 227 230 239 242 246 251 247 240 240 254 269 280 295 320 339 355 16 32 39
296 298 299 300 301 302 301 301 301 301 300 299 299 299 298 297 295 293 291 289 286 282 279 277 274 272 269 266 262 258 254 251 248 245 242 241 239 238 237 235 233 231 231 231 229 227 227 229 230 230 229 228 228 228 228 227 226 226 227 227 227 227 227 228 227 227 227 229 230 228 228 233 233 238 246 244 240 242 250 260 269 277 289 311 332 358 22 36
296 298 299 300 300 300 300 300 301 301 300 300 300 300 298 297 296 294 293 291 287 284 280 277 274 271 269 267 265 261 257 254 251 249 245 242 240 239 238 236 234 232 231 230 229 228 228 228 230 231 230 229 228 228 228 227 226 226 227 227 226 227 228 228 228 227 227 229 231 229 227 229 228 228 235 240 239 239 246 253 261 269 277 286 306 335 7 29
295 296 297 298 298 298 299 299 300 300 299 299 300 299 298 297 295 294 293 291 288 286 282 278 275 272 270 267 265 263 261 257 254 251 248 245 242 239 238 237 235 234 232 231 230 229 229 228 229 230 230 230 228 228 228 227 226 226 227 227 226 227 227 228 228 228 227 228 230 230 226 226 227 225 228 235 237 235 239 248 257 264 269 274 285 306 334 19
294 295 295 296 296 297 297 298 298 298 298 298 299 298 297 296 295 294 292 290 288 286 283 279 275 272 270 268 266 264 262 260 257 254 251 247 244 241 239 238 236 235 234 232 230 229 229 228 228 229 229 229 229 228 228 227 226 226 226 227 226 226 227 228 228 228 227 228 229 230 226 225 228 229 230 233 236 235 237 244 252 258 261 265 270 281 297 344
292 293 294 295 295 296 296 296 296 297 297 297 298 297 296 295 294 293 291 289 287 285 283 281 277 273 269 268 266 265 263 261 259 256 253 250 247 243 240 238 237 236 235 233 232 230 229 228 228 228 229 230 229 229 229 228 226 226 226 226 226 226 226 227 228 228 227 227 228 229 227 225 227 231 233 235 235 236 238 243 248 252 254 258 261 264 271 278
291 292 293 294 294 295 295 295 295 295 296 296 296 296 295 295 294 293 292 290 287 285 283 281 280 277 273 269 266 264 263 261 260 258 256 253 250 247 243 240 238 236 235 234 233 231 230 229 228 228 229 229 230 230 230 229 228 227 226 226 226 226 225 227 228 228 227 227 227 228 227 226 225 228 232 233 235 236 238 242 246 248 250 254 256 254 257 257
291 292 292 293 293 293 293 293 294 294 295 295 295 295 295 294 294 293 292 291 289 286 284 282 280 278 275 272 269 266 264 262 261 260 258 255 252 249 245 242 239 237 236 235 234 232 231 230 228 228 228 229 229 230 229 229 229 228 227 226 227 227 226 226 228 229 228 227 227 227 227 226 226 227 230 231 233 235 237 240 243 244 247 252 254 249 249 250
291 291 292 292 292 292 293 293 293 294 294 294 294 294 294 295 295 294 294 293 291 289 287 284 281 277 274 271 269 267 265 264 263 261 260 258 255 251 247 244 240 237 236 235 234 233 232 231 230 229 229 229 229 230 229 229 230 229 228 227 227 227 227 227 227 228 229 228 228 228 227 227 227 228 230 231 233 235 236 238 239 239 243 250 251 246 245 245
290 290 290 291 291 292 292 292 293 294 294 294 295 295 295 295 296 296 295 295 294 292 290 286 282 278 275 272 269 267 265 264 264 263 261 260 257 253 249 246 242 239 237 235 234 234 233 231 230 229 229 229 229 230 230 230 230 230 230 228 227 226 227 227 228 228 228 229 229 229 228 228 227 228 229 230 233 235 235 235 236 238 243 247 247 244 242 240
289 290 290 291 292 293 292 292 292 294 294 294 296 296 297 298 298 299 299 299 298 295 293 290 285 280 276 273 272 269 267 264 262 261 261 260 258 255 252 248 244 241 238 235 234 233 233 232 231 230 229 228 229 229 230 230 229 229 229 229 227 226 226 226 227 228 228 228 229 229 229 228 228 228 228 228 230 232 231 232 235 238 241 244 243 241 240 238
288 290 292 292 293 293 292 290 291 294 294 294 296 298 299 301 302 302 303 304 302 299 296 294 290 285 280 276 274 272 270 267 264 262 260 259 258 256 253 250 246 243 240 236 234 233 233 232 231 230 229 229 229 229 229 230 229 228 229 229 228 228 227 226 226 227 228 228 228 229 229 229 228 228 228 227 227 228 227 230 235 238 239 240 240 239 238 237
289 290 292 293 292 290 291 289 290 293 293 293 295 297 299 301 302 303 304 304 303 301 298 295 293 290 286 281 277 273 272 270 268 265 261 259 257 255 252 250 247 244 241 238 235 233 232 232 231 230 230 230 229 229 230 230 229 229 229 229 229 229 228 227 227 226 227 228 228 229 229 229 229 228 228 227 226 225 226 231 236 239 239 238 237 235 236 236
289 289 290 291 291 289 288 288 289 291 291 291 293 295 297 298 299 301 301 301 301 301 299 297 295 294 291 285 280 276 273 271 269 267 263 259 257 255 252 249 246 244 241 239 237 234 233 232 231 230 230 230 230 229 230 230 230 230 229 229 230 230 230 229 228 227 227 227 228 229 229 229 229 229 228 227 227 225 227 232 236 239 238 237 235 233 233 235
289 288 287 288 289 288 287 286 287 288 289 290 291 293 295 295 297 299 297 297 298 298 298 298 297 296 292 288 284 280 276 272 269 266 263 260 257 255 253 250 247 244 242 240 238 236 234 233 231 230 230 230 230 229 229 230 230 230 229 229 230 230 231 231 230 229 228 227 228 228 229 230 230 229 229 228 228 227 228 232 234 236 236 236 236 235 233 234
289 289 288 286 287 288 288 287 287 288 289 289 291 293 293 294 298 298 295 294 295 295 295 297 298 297 294 291 287 283 279 276 271 266 263 261 258 255 253 251 247 244 242 240 239 237 235 234 232 230 230 230 229 229 229 229 230 230 229 228 228 228 229 230 231 231 229 228 228 228 229 229 229 230 230 229 228 228 229 231 233 234 234 235 236 237 236 236
289 290 289 288 289 290 290 291 290 290 290 290 291 292 292 295 299 299 297 295 293 293 293 295 297 298 295 292 290 287 282 279 275 270 265 262 259 257 254 251 248 245 243 241 240 238 236 235 233 231 230 229 229 229 230 230 230 231 230 230 228 227 228 230 231 231 231 230 230 230 229 228 228 229 230 230 229 229 229 231 232 233 233 233 233 236 238 237
288 290 288 288 290 290 291 292 292 292 292 292 292 291 292 297 300 300 299 296 294 292 292 293 294 296 295 291 290 291 287 281 277 274 270 265 262 259 257 253 250 246 243 242 241 239 237 236 234 232 231 229 228 229 230 230 230 231 231 231 230 229 228 229 229 230 230 230 230 230 230 229 228 228 229 229 229 229 229 229 231 232 233 232 231 233 237 238
287 288 287 288 289 290 290 291 291 291 291 291 290 289 292 297 300 300 299 297 295 293 291 291 292 293 293 292 291 291 289 282 276 272 268 264 262 260 257 254 250 247 244 242 241 238 238 237 235 234 233 230 228 229 229 229 230 230 231 232 231 231 230 229 229 229 230 230 230 230 230 230 229 228 228 229 229 229 229 229 229 230 232 232 231 233 236 238
286 286 286 287 287 288 289 289 289 289 289 289 288 288 292 296 299 301 299 296 294 292 291 291 291 291 292 292 291 289 287 284 276 269 263 258 258 258 258 256 252 248 245 243 241 240 239 239 237 236 235 232 229 229 229 229 230 230 231 231 231 232 231 231 230 230 230 231 231 231 231 230 229 229 228 228 228 228 228 228 228 229 230 231 231 232 235 237
286 286 287 286 286 286 287 288 288 287 286 286 286 288 291 294 297 299 296 294 294 292 291 291 290 289 289 290 290 286 285 284 280 273 266 258 256 257 257 256 254 251 249 246 244 242 240 239 238 237 235 232 230 229 229 230 230 230 230 230 230 231 231 231 230 230 230 231 231 232 232 232 231 230 229 228 228 228 228 228 228 228 229 230 231 231 232 233
286 288 288 286 285 285 285 286 287 286 285 284 285 287 289 291 292 293 293 294 294 293 293 292 290 289 287 287 287 285 282 282 281 278 272 263 258 257 256 254 253 252 251 249 246 243 242 240 239 238 235 233 230 229 228 229 230 230 230 230 230 230 230 231 231 230 230 230 230 232 233 234 233 232 231 230 229 228 228 228 228 228 229 230 230 230 230 230
285 287 286 285 284 284 284 285 286 285 284 284 285 286 287 288 289 290 292 294 295 294 294 293 291 289 286 283 284 283 278 276 278 277 273 265 257 256 258 257 253 249 247 248 247 245 244 242 241 240 238 234 231 230 229 228 230 231 230 230 230 229 230 230 230 231 230 229 229 229 231 234 235 234 234 233 232 230 229 229 228 228 229 229 230 230 229 229
285 285 284 284 283 283 284 285 284 283 283 283 284 284 285 287 289 291 294 295 295 294 294 293 291 287 284 282 282 282 277 273 273 272 270 264 258 255 257 259 258 253 247 245 245 246 245 244 243 243 242 237 233 232 230 228 228 230 231 231 230 229 229 230 230 231 231 230 229 228 229 231 233 234 234 234 234 233 232 231 230 229 229 229 230 230 229 228
283 283 283 283 283 283 284 284 283 281 281 281 282 283 284 285 287 290 294 295 294 292 290 291 290 286 282 280 279 279 277 272 270 268 266 262 257 254 253 256 259 258 253 247 244 243 244 243 243 242 243 241 237 235 234 231 228 227 229 231 231 229 228 229 230 231 231 231 230 229 229 230 231 233 234 234 234 235 234 233 232 231 230 230 230 230 229 228
282 282 281 281 281 281 283 282 280 280 280 279 280 282 283 283 285 288 291 293 293 290 287 287 288 284 280 278 275 274 274 271 266 264 263 260 256 251 248 250 254 257 256 253 249 246 243 241 241 241 241 242 240 238 238 235 231 229 228 229 230 230 229 228 228 229 231 231 230 229 229 230 231 232 233 234 234 234 234 233 233 232 231 231 230 230 229 227
280 280 279 279 279 279 280 279 279 279 279 279 280 281 282 283 284 286 287 288 289 289 285 282 282 280 276 275 273 272 272 270 264 259 259 258 256 252 246 244 248 252 254 254 254 252 248 244 242 242 241 241 241 240 240 239 236 233 231 229 228 229 229 229 228 228 229 230 230 230 229 229 229 231 232 233 234 233 233 233 232 232 232 232 230 229 228 227
279 279 278 277 277 277 277 277 278 278 279 279 280 280 281 282 283 283 284 284 286 287 282 277 276 277 274 273 271 269 268 268 264 258 255 256 255 253 248 243 244 249 252 252 253 255 254 250 247 245 243 242 241 240 240 240 239 238 236 233 230 229 229 229 229 228 228 229 230 230 230 229 228 228 230 231 233 233 233 232 232 231 231 231 231 230 229 227
279 278 277 276 276 276 275 275 276 276 277 278 278 279 281 280 280 280 281 281 283 284 279 274 274 275 273 270 267 265 264 263 261 256 253 254 254 252 249 244 243 247 249 250 250 251 254 255 253 249 245 243 242 241 241 241 241 240 239 237 234 232 230 230 229 229 229 228 228 229 230 229 228 228 228 229 231 232 233 232 231 231 231 230 231 230 230 229
278 277 276 275 274 275 275 275 274 274 275 276 276 277 278 277 276 277 278 279 281 282 278 272 272 274 273 269 265 263 261 260 260 255 250 250 251 251 250 247 244 244 246 247 247 247 250 252 255 254 249 245 243 243 243 243 243 243 241 239 237 235 233 231 230 230 230 229 228 227 228 229 229 228 227 228 229 230 231 232 231 230 231 230 230 230 230 230
276 275 274 273 273 273 273 273 273 273 273 273 274 274 274 274 274 275 277 278 280 282 278 270 268 271 271 267 264 262 260 259 259 254 246 244 245 245 246 246 244 244 245 245 245 246 249 250 253 255 254 250 245 243 244 244 245 246 244 241 239 237 236 234 232 230 229 229 228 227 227 228 229 229 228 227 228 229 230 230 230 229 230 230 229 229 229 229
275 274 273 272 271 271 272 272 272 272 271 271 271 271 270 271 272 273 275 277 278 280 277 268 265 269 270 266 262 261 260 258 257 253 247 243 242 241 241 242 243 242 243 245 246 247 250 250 250 253 255 253 248 244 243 244 246 247 247 245 242 240 237 235 234 232 231 229 228 227 227 228 229 229 228 228 228 228 229 230 230 229 229 229 229 229 229 228
273 272 271 271 271 270 270 271 272 272 271 270 270 270 269 269 270 271 274 275 277 278 273 266 265 268 268 264 260 257 257 257 256 253 249 245 243 242 242 242 243 242 242 243 244 245 247 247 247 250 252 252 251 247 243 243 244 246 247 246 244 242 239 236 235 234 232 230 228 227 227 227 228 228 228 228 228 228 229 229 230 230 229 229 229 229 229 228
271 270 270 271 271 270 270 271 272 272 271 270 269 269 268 268 269 270 272 274 275 275 269 264 265 266 265 261 258 255 255 255 254 252 249 245 242 241 240 240 241 241 241 242 243 244 245 246 246 247 248 250 251 249 245 243 243 244 245 246 246 243 240 238 236 235 234 232 230 228 226 226 227 226 227 227 228 228 228 228 229 230 230 230 229 229 230 229
Height
10922 10922 10922 10921 10921 10921 10921 10921 10921 10921 10921 10921 10920 10920 10920 10921 10921 10921 10921 10921 10922 10922 10923 10923 10924 10925 10927 10928 10930 10931 10933 10934 10937 10939 10942 10944 10946 10949 10951 10954 10956 10958 10960 10962 10963 10964 10966 10967 10969 10970 10971 10972 10973 10974 10975 10976 10978 10980 10981 10981 10982 10982 10982 10981 10981 10980 10980 10980 10980 10979 10978 10977 10976 10975 10973 10971 10969 10967 10965 10962 10959 10956 10954 10952 10950 10948 10945 10943
10922 10921 10921 10920 10920 10920 10920 10920 10920 10920 10920 10919 10919 10919 10919 10919 10919 10919 10919 10920 10920 10921 10921 10922 10922 10923 10924 10926 10927 10928 10930 10931 10934 10936 10938 10941 10943 10946 10948 10951 10953 10955 10957 10959 10961 10962 10964 10965 10966 10968 10969 10970 10972 10973 10974 10975 10977 10979 10980 10980 10981 10981 10981 10981 10980 10980 10980 10980 10980 10979 10979 10978 10977 10976 10974 10972 10970 10968 10966 10963 10961 10958 10956 10954 10952 10949 10947 10945
10921 10920 10920 10919 10919 10919 10919 10919 10918 10918 10918 10918 10918 10917 10917 10917 10917 10917 10917 10918 10918 10919 10919 10920 10920 10921 10922 10923 10924 10926 10927 10928 10931 10933 10935 10937 10940 10942 10945 10947 10949 10952 10954 10957 10958 10960 10961 10962 10964 10966 10967 10969 10970 10972 10973 10975 10976 10978 10979 10980 10980 10980 10981 10981 10981 10981 10981 10981 10980 10979 10979 10978 10977 10976 10975 10973 10972 10969 10967 10965 10963 10961 10958 10956 10954 10951 10949 10947
10919 10919 10918 10918 10918 10917 10917 10917 10917 10917 10916 10916 10916 10916 10915 10915 10915 10915 10915 10915 10916 10916 10917 10917 10918 10919 10920 10921 10922 10923 10924 10925 10927 10930 10931 10933 10936 10939 10941 10943 10946 10949 10952 10954 10955 10957 10958 10960 10961 10964 10966 10967 10969 10971 10972 10974 10976 10977 10978 10979 10979 10980 10980 10981 10981 10981 10981 10981 10980 10979 10979 10978 10977 10977 10976 10974 10973 10971 10969 10967 10965 10963 10960 10958 10956 10954 10951 10949
10918 10918 10917 10917 10916 10916 10916 10915 10915 10915 10914 10914 10914 10914 10913 10913 10913 10913 10913 10913 10913 10914 10914 10915 10916 10917 10918 10918 10919 10920 10921 10922 10924 10926 10928 10930 10932 10935 10937 10940 10943 10946 10949 10951 10952 10954 10956 10957 10959 10962 10964 10966 10967 10969 10971 10973 10975 10976 10977 10977 10978 10979 10980 10980 10980 10981 10981 10980 10980 10979 10979 10979 10978 10977 10977 10975 10974 10973 10971 10969 10967 10965 10962 10960 10957 10955 10953 10951
10917 10916 10916 10915 10915 10914 10914 10913 10913 10912 10912 10912 10911 10911 10911 10911 10910 10910 10910 10910 10910 10911 10911 10912 10913 10914 10915 10916 10916 10916 10917 10919 10920 10923 10925 10926 10929 10931 10933 10936 10939 10942 10946 10948 10949 10951 10953 10955 10957 10960 10962 10964 10966 10968 10970 10972 10974 10975 10976 10976 10977 10979 10980 10980 10980 10980 10980 10980 10979 10979 10979 10979 10979 10978 10977 10976 10975 10974 10972 10970 10968 10966 10963 10961 10959 10957 10955 10953
10916 10915 10914 10914 10913 10913 10912 10911 10911 10910 10910 10909 10909 10908 10908 10908 10908 10907 10907 10907 10907 10908 10908 10909 10910 10911 10912 10913 10913 10914 10914 10915 10917 10919 10921 10923 10925 10927 10930 10932 10935 10938 10942 10945 10946 10948 10950 10952 10955 10957 10959 10961 10964 10966 10968 10970 10972 10973 10974 10975 10977 10978 10979 10979 10979 10979 10979 10979 10979 10979 10979 10979 10979 10978 10978 10977 10976 10975 10974 10972 10970 10967 10965 10963 10961 10959 10957 10954
10914 10914 10913 10912 10912 10911 10910 10909 10909 10908 10907 10907 10906 10905 10905 10905 10905 10904 10904 10904 10904 10904 10905 10906 10907 10908 10908 10909 10910 10911 10911 10912 10913 10915 10917 10920 10922 10924 10926 10928 10931 10934 10938 10941 10943 10945 10947 10950 10951 10954 10956 10959 10961 10964 10966 10968 10970 10972 10973 10974 10976 10977 10978 10978 10978 10979 10979 10979 10979 10979 10979 10980 10979 10978 10978 10978 10977 10976 10975 10973 10971 10969 10967 10965 10963 10961 10958 10957
10913 10912 10911 10910 10910 10909 10908 10907 10906 10906 10905 10904 10903 10903 10902 10902 10902 10901 10901 10901 10901 10901 10902 10902 10903 10904 10905 10906 10906 10907 10908 10909 10910 10911 10913 10916 10919 10921 10922 10924 10927 10930 10933 10936 10939 10942 10944 10946 10948 10951 10954 10956 10959 10961 10964 10966 10968 10970 10971 10973 10975 10975 10976 10977 10978 10979 10980 10979 10979 10979 10979 10980 10980 10979 10978 10978 10977 10977 10976 10974 10972 10971 10969 10967 10965 10963 10961 10959
10911 10910 10909 10909 10908 10907 10906 10905 10904 10903 10903 10902 10901 10900 10899 10899 10899 10898 10898 10898 10898 10898 10899 10899 10900 10900 10901 10902 10903 10904 10904 10906 10907 10908 10910 10912 10915 10917 10919 10920 10923 10926 10929 10932 10936 10938 10940 10943 10946 10948 10951 10953 10955 10958 10961 10964 10966 10968 10969 10971 10973 10974 10974 10976 10977 10978 10979 10979 10979 10980 10980 10979 10979 10978 10978 10978 10978 10977 10976 10975 10974 10973 10971 10969 10967 10965 10963 10962
10909 10908 10907 10907 10906 10905 10904 10903 10902 10901 10900 10899 10898 10898 10897 10896 10896 10896 10895 10895 10895 10895 10896 10896 10896 10897 10897 10898 10899 10900 10901 10902 10904 10905 10907 10909 10911 10913 10915 10917 10920 10922 10924 10927 10931 10934 10936 10940 10943 10945 10947 10949 10951 10955 10958 10961 10963 10966 10967 10969 10971 10972 10973 10975 10977 10977 10977 10978 10979 10980 10979 10979 10979 10979 10978 10978 10978 10978 10977 10976 10975 10974 10973 10971 10969 10967 10965 10963
10907 10906 10905 10904 10903 10902 10901 10900 10900 10899 10898 10897 10896 10895 10894 10893 10893 10893 10892 10892 10892 10892 10892 10893 10893 10894 10894 10894 10895 10896 10897 10899 10900 10902 10903 10905 10907 10909 10911 10914 10916 10919 10921 10923 10927 10930 10933 10937 10940 10941 10943 10945 10948 10952 10955 10958 10961 10963 10965 10966 10968 10970 10971 10974 10975 10976 10977 10978 10979 10979 10979 10979 10979 10979 10978 10978 10978 10978 10978 10977 10976 10976 10974 10973 10971 10968 10967 10965
10905 10904 10903 10902 10901 10900 10899 10898 10897 10896 10895 10894 10893 10893 10892 10891 10890 10890 10889 10889 10889 10889 10889 10890 10890 10890 10891 10891 10892 10892 10893 10895 10896 10898 10899 10902 10903 10905 10907 10910 10913 10915 10917 10919 10923 10926 10929 10932 10935 10937 10939 10942 10945 10949 10952 10955 10958 10960 10962 10964 10966 10968 10970 10972 10974 10975 10976 10977 10978 10978 10978 10979 10979 10978 10978 10978 10978 10979 10979 10978 10978 10977 10975 10974 10972 10970 10969 10968
10902 10901 10900 10900 10899 10898 10897 10896 10895 10894 10893 10892 10891 10890 10889 10888 10888 10887 10887 10886 10886 10886 10886 10886 10887 10887 10887 10888 10888 10889 10890 10891 10893 10894 10895 10898 10900 10902 10904 10906 10909 10911 10913 10916 10918 10921 10925 10928 10930 10932 10935 10938 10940 10945 10949 10952 10955 10957 10959 10961 10963 10966 10968 10970 10972 10974 10975 10976 10976 10977 10978 10978 10978 10978 10978 10978 10978 10979 10979 10979 10979 10978 10977 10976 10974 10973 10972 10971
10900 10899 10898 10897 10896 10895 10894 10893 10893 10892 10891 10889 10888 10887 10886 10886 10885 10885 10884 10883 10883 10883 10883 10883 10884 10884 10884 10884 10885 10885 10886 10888 10889 10890 10891 10894 10896 10898 10900 10902 10905 10907 10909 10912 10914 10917 10920 10923 10925 10927 10930 10934 10936 10940 10945 10949 10952 10954 10956 10959 10961 10964 10966 10968 10970 10972 10973 10974 10975 10976 10977 10978 10978 10977 10978 10978 10978 10979 10979 10979 10980 10979 10978 10977 10975 10975 10974 10973
10897 10896 10895 10895 10894 10893 10892 10891 10890 10889 10888 10886 10885 10884 10884 10883 10882 10882 10882 10881 10880 10880 10880 10880 10880 10880 10880 10881 10881 10881 10883 10884 10885 10886 10888 10889 10891 10894 10896 10898 10901 10903 10905 10907 10910 10913 10915 10918 10920 10922 10926 10930 10933 10937 10941 10946 10949 10951 10953 10956 10958 10961 10964 10966 10968 10970 10971 10972 10974 10975 10976 10977 10978 10977 10977 10978 10978 10978 10979 10979 10980 10979 10979 10978 10977 10976 10975 10974
10895 10894 10893 10892 10891 10890 10889 10888 10887 10886 10885 10883 10882 10881 10881 10880 10880 10879 10879 10878 10877 10877 10876 10876 10877 10877 10877 10877 10878 10878 10879 10880 10881 10882 10883 10885 10887 10889 10892 10894 10896 10898 10901 10903 10906 10909 10911 10913 10915 10918 10922 10925 10929 10933 10938 10942 10945 10948 10950 10952 10955 10959 10961 10964 10966 10967 10969 10971 10972 10974 10974 10975 10977 10977 10977 10977 10977 10978 10979 10979 10979 10980 10979 10978 10978 10978 10977 10975
10892 10891 10890 10889 10888 10887 10886 10885 10884 10883 10882 10880 10879 10878 10878 10877 10877 10876 10875 10875 10875 10874 10873 10873 10873 10873 10873 10874 10874 10874 10875 10876 10877 10878 10879 10881 10882 10884 10887 10889 10892 10894 10897 10900 10903 10905 10907 10909 10910 10913 10917 10921 10925 10930 10934 10938 10941 10944 10946 10948 10952 10956 10959 10961 10963 10965 10967 10969 10971 10973 10973 10974 10975 10976 10976 10977 10977 10977 10978 10979 10979 10980 10980 10979 10979 10979 10978 10976
10889 10888 10887 10886 10885 10884 10883 10882 10880 10879 10878 10877 10876 10875 10875 10874 10873 10873 10872 10872 10871 10871 10870 10870 10870 10870 10870 10870 10871 10871 10871 10872 10873 10874 10875 10877 10878 10880 10882 10885 10888 10890 10892 10895 10899 10901 10903 10905 10906 10907 10912 10918 10922 10926 10930 10933 10937 10940 10942 10945 10948 10952 10955 10957 10960 10963 10965 10967 10969 10971 10972 10973 10973 10974 10975 10976 10976 10977 10978 10978 10979 10979 10980 10980 10980 10980 10979 10978
10886 10885 10884 10883 10882 10881 10879 10878 10877 10876 10875 10874 10873 10872 10871 10871 10870 10869 10869 10868 10868 10868 10868 10867 10867 10866 10866 10866 10867 10867 10868 10868 10869 10870 10871 10873 10874 10876 10878 10880 10883 10886 10888 10891 10894 10896 10898 10900 10901 10903 10909 10915 10919 10921 10925 10929 10933 10936 10938 10941 10945 10949 10951 10954 10957 10960 10963 10965 10967 10969 10971 10972 10972 10973 10974 10975 10976 10976 10977 10978 10978 10979 10979 10980 10980 10980 10980 10979
10883 10882 10881 10880 10879 10877 10876 10875 10874 10873 10871 10870 10870 10869 10868 10867 10867 10866 10865 10865 10864 10864 10864 10864 10864 10863 10863 10862 10862 10863 10864 10865 10865 10866 10867 10869 10871 10872 10874 10876 10878 10881 10884 10886 10889 10892 10894 10896 10897 10901 10907 10911 10913 10916 10919 10924 10928 10931 10933 10936 10941 10944 10947 10951 10954 10957 10960 10962 10964 10966 10969 10970 10971 10972 10973 10973 10974 10975 10976 10977 10977 10978 10979 10979 10980 10980 10980 10980
10880 10879 10878 10876 10875 10874 10873 10871 10871 10869 10868 10867 10867 10866 10864 10864 10863 10862 10862 10861 10860 10860 10860 10860 10860 10860 10860 10859 10859 10859 10860 10861 10862 10862 10863 10865 10866 10868 10869 10871 10874 10876 10879 10882 10885 10888 10890 10892 10895 10899 10902 10904 10907 10911 10914 10919 10923 10926 10929 10932 10937 10940 10944 10947 10950 10953 10957 10959 10961 10963 10966 10968 10968 10969 10971 10972 10972 10973 10975 10976 10976 10977 10978 10978 10979 10980 10980 10980
10877 10876 10874 10873 10872 10871 10869 10868 10867 10866 10864 10864 10863 10862 10861 10860 10859 10859 10859 10858 10857 10856 10856 10857 10857 10857 10856 10856 10855 10856 10856 10857 10857 10858 10859 10860 10862 10863 10865 10867 10869 10872 10874 10877 10880 10883 10886 10889 10892 10894 10896 10898 10902 10906 10909 10913 10918 10921 10924 10927 10932 10936 10940 10944 10946 10949 10953 10955 10958 10960 10962 10964 10965 10967 10969 10971 10971 10972 10973 10975 10975 10976 10977 10978 10979 10980 10980 10981
10874 10873 10871 10870 10868 10867 10866 10865 10864 10863 10861 10860 10860 10859 10857 10857 10856 10855 10855 10854 10853 10853 10852 10852 10853 10854 10853 10853 10852 10852 10852 10853 10853 10854 10854 10856 10857 10859 10861 10863 10865 10868 10870 10872 10875 10878 10882 10885 10887 10890 10892 10895 10898 10901 10904 10908 10912 10916 10919 10922 10927 10932 10936 10939 10941 10945 10948 10951 10954 10956 10959 10961 10963 10965 10967 10969 10970 10970 10972 10973 10974 10975 10976 10977 10978 10979 10980 10980
10870 10869 10868 10867 10865 10863 10862 10861 10860 10859 10858 10857 10856 10855 10854 10853 10852 10852 10851 10851 10850 10849 10849 10849 10849 10850 10849 10849 10848 10848 10849 10849 10850 10850 10850 10851 10853 10855 10857 10859 10861 10863 10865 10867 10870 10874 10877 10880 10883 10886 10888 10890 10893 10897 10900 10903 10907 10910 10914 10918 10922 10927 10932 10934 10936 10940 10944 10947 10950 10953 10955 10958 10960 10963 10965 10967 10968 10969 10970 10971 10972 10974 10975 10976 10977 10978 10979 10980
10867 10866 10864 10863 10862 10860 10858 10857 10856 10855 10854 10853 10853 10852 10850 10849 10849 10848 10848 10847 10846 10846 10845 10846 10846 10846 10845 10845 10845 10844 10845 10845 10846 10846 10846 10847 10849 10851 10853 10854 10856 10858 10860 10863 10866 10869 10872 10875 10879 10882 10884 10886 10889 10891 10895 10898 10902 10905 10909 10914 10918 10923 10927 10930 10932 10935 10939 10943 10946 10949 10952 10955 10958 10960 10962 10964 10966 10967 10968 10970 10971 10972 10974 10975 10976 10977 10978 10979
10863 10862 10861 10860 10858 10856 10854 10853 10852 10852 10851 10850 10849 10849 10847 10846 10845 10844 10844 10844 10843 10842 10842 10842 10842 10842 10842 10842 10841 10841 10841 10841 10842 10842 10842 10843 10845 10846 10848 10849 10851 10854 10856 10858 10861 10864 10867 10871 10874 10877 10879 10882 10884 10887 10890 10894 10897 10901 10905 10910 10915 10919 10922 10925 10928 10931 10935 10939 10942 10945 10948 10951 10955 10957 10959 10962 10964 10965 10967 10968 10970 10971 10972 10973 10974 10975 10977 10978
10858 10858 10857 10856 10855 10853 10851 10849 10848 10849 10848 10846 10846 10845 10844 10843 10841 10841 10840 10840 10840 10839 10839 10839 10839 10839 10838 10838 10837 10837 10838 10838 10838 10838 10838 10839 10840 10842 10844 10845 10847 10849 10851 10853 10856 10859 10862 10865 10868 10871 10875 10878 10881 10883 10886 10889 10893 10897 10901 10904 10909 10912 10916 10919 10923 10926 10930 10934 10938 10941 10944 10948 10951 10953 10956 10959 10961 10963 10965 10967 10968 10969 10970 10972 10973 10974 10975 10977
10854 10854 10854 10853 10851 10850 10849 10846 10845 10845 10845 10843 10843 10842 10841 10840 10839 10837 10837 10836 10837 10835 10835 10835 10835 10835 10834 10834 10834 10834 10834 10834 10835 10835 10835 10835 10836 10837 10839 10841 10842 10844 10846 10849 10851 10854 10856 10859 10863 10866 10870 10873 10876 10878 10881 10884 10888 10892 10895 10898 10902 10906 10910 10914 10917 10921 10925 10930 10934 10937 10940 10944 10947 10950 10953 10956 10958 10960 10963 10965 10966 10967 10968 10970 10971 10972 10973 10975
10851 10850 10850 10850 10848 10846 10845 10843 10841 10842 10842 10840 10839 10839 10838 10838 10836 10835 10833 10833 10833 10832 10831 10831 10831 10831 10831 10830 10830 10830 10829 10830 10830 10831 10831 10832 10832 10833 10835 10836 10838 10840 10841 10844 10846 10848 10851 10854 10857 10862 10865 10868 10871 10874 10877 10880 10883 10887 10889 10893 10896 10900 10904 10908 10911 10915 10920 10924 10929 10932 10936 10940 10943 10946 10949 10952 10955 10957 10960 10962 10963 10964 10966 10968 10969 10970 10971 10973
10849 10847 10846 10846 10845 10843 10842 10840 10838 10839 10839 10837 10837 10836 10836 10835 10834 10832 10831 10830 10830 10829 10828 10827 10827 10828 10828 10827 10826 10826 10826 10826 10826 10827 10828 10828 10828 10829 10831 10832 10834 10835 10837 10839 10841 10843 10846 10848 10852 10857 10861 10863 10866 10870 10873 10875 10878 10881 10885 10888 10892 10895 10899 10902 10906 10911 10915 10920 10924 10927 10931 10935 10939 10942 10945 10949 10951 10954 10957 10959 10960 10962 10964 10965 10967 10968 10969 10971
10846 10845 10843 10842 10841 10840 10839 10837 10836 10836 10836 10835 10834 10833 10833 10832 10831 10830 10828 10826 10826 10825 10824 10824 10824 10824 10825 10824 10823 10823 10823 10823 10823 10823 10823 10824 10824 10825 10827 10828 10829 10831 10832 10834 10836 10838 10841 10844 10848 10852 10856 10858 10862 10865 10867 10870 10873 10877 10881 10885 10888 10891 10894 10898 10902 10906 10911 10916 10919 10922 10926 10930 10934 10938 10941 10945 10948 10951 10954 10956 10958 10959 10961 10963 10964 10966 10967 10968
10843 10842 10841 10839 10837 10837 10836 10834 10833 10833 10832 10831 10831 10830 10829 10828 10828 10828 10826 10823 10822 10821 10821 10820 10820 10821 10821 10821 10820 10819 10819 10819 10820 10820 10820 10820 10821 10821 10823 10824 10825 10827 10828 10830 10832 10834 10836 10839 10843 10847 10850 10853 10856 10860 10862 10864 10868 10871 10876 10880 10883 10887 10890 10893 10897 10902 10906 10911 10914 10918 10921 10925 10929 10933 10936 10940 10944 10947 10950 10952 10954 10956 10959 10961 10962 10963 10965 10966
10840 10839 10838 10836 10834 10833 10832 10831 10830 10830 10829 10828 10827 10827 10826 10825 10825 10825 10823 10820 10819 10817 10817 10817 10817 10817 10817 10817 10817 10816 10816 10816 10816 10816 10817 10817 10817 10818 10819 10820 10822 10823 10824 10826 10827 10830 10832 10835 10838 10842 10845 10848 10851 10854 10856 10859 10862 10866 10870 10874 10877 10880 10884 10888 10892 10896 10901 10906 10909 10912 10915 10919 10924 10928 10932 10936 10939 10943 10946 10948 10951 10953 10955 10958 10959 10960 10962 10963
10836 10836 10834 10832 10831 10830 10828 10828 10827 10826 10826 10824 10823 10823 10822 10821 10822 10821 10820 10818 10816 10814 10813 10813 10814 10814 10814 10813 10813 10814 10813 10813 10813 10813 10813 10814 10814 10815 10815 10817 10818 10819 10821 10822 10823 10826 10829 10830 10834 10837 10839 10842 10846 10849 10851 10855 10859 10862 10865 10867 10871 10876 10880 10883 10888 10892 10896 10900 10903 10906 10909 10914 10919 10923 10926 10930 10934 10938 10941 10944 10947 10949 10951 10954 10956 10957 10959 10961
10832 10832 10831 10828 10827 10826 10825 10824 10824 10823 10822 10821 10820 10819 10818 10818 10819 10818 10817 10815 10814 10812 10810 10810 10810 10811 10811 10810 10810 10810 10810 10810 10810 10810 10810 10810 10811 10811 10812 10813 10814 10816 10817 10818 10820 10822 10824 10826 10829 10832 10834 10837 10842 10844 10847 10851 10854 10856 10859 10862 10867 10872 10876 10878 10882 10885 10889 10893 10897 10900 10903 10908 10913 10918 10921 10924 10928 10932 10936 10939 10942 10944 10947 10949 10952 10953 10955 10957
10828 10828 10827 10824 10823 10822 10822 10821 10820 10819 10819 10818 10816 10815 10814 10815 10816 10815 10814 10812 10811 10809 10807 10807 10807 10807 10807 10807 10806 10807 10807 10807 10807 10807 10807 10807 10807 10807 10809 10810 10811 10812 10813 10814 10816 10818 10820 10822 10824 10826 10829 10833 10837 10840 10843 10846 10848 10850 10854 10858 10862 10866 10869 10873 10877 10881 10884 10887 10890 10894 10897 10902 10907 10912 10915 10918 10923 10926 10930 10934 10937 10939 10941 10944 10947 10949 10951 10954
10824 10824 10823 10820 10819 10818 10817 10817 10816 10815 10815 10814 10812 10810 10810 10811 10812 10812 10811 10809 10808 10806 10804 10803 10803 10804 10804 10804 10803 10803 10803 10803 10804 10804 10804 10804 10804 10804 10805 10806 10807 10808 10810 10811 10813 10815 10817 10818 10820 10822 10824 10829 10833 10836 10838 10840 10843 10846 10849 10853 10856 10860 10864 10868 10872 10876 10879 10883 10886 10889 10892 10896 10900 10905 10908 10912 10916 10920 10923 10927 10931 10933 10936 10939 10942 10945 10947 10950
10818 10819 10818 10816 10814 10813 10813 10812 10812 10811 10811 10809 10808 10807 10807 10807 10809 10809 10807 10805 10804 10802 10801 10800 10800 10800 10800 10800 10800 10800 10800 10799 10800 10801 10801 10802 10801 10801 10802 10803 10804 10805 10807 10808 10810 10812 10812 10814 10816 10817 10820 10824 10828 10831 10833 10835 10838 10840 10844 10847 10851 10855 10859 10862 10866 10870 10874 10878 10882 10884 10888 10891 10894 10898 10902 10906 10910 10913 10917 10921 10925 10928 10930 10933 10937 10940 10943 10946
10813 10813 10812 10811 10809 10808 10808 10808 10807 10807 10806 10805 10803 10803 10802 10803 10804 10805 10803 10802 10800 10799 10798 10797 10796 10796 10797 10797 10797 10797 10797 10796 10796 10797 10798 10799 10798 10798 10799 10800 10802 10803 10804 10805 10807 10808 10808 10810 10812 10813 10816 10820 10823 10826 10828 10830 10833 10835 10839 10842 10846 10850 10853 10856 10860 10864 10868 10872 10876 10880 10883 10886 10889 10893 10897 10900 10904 10907 10911 10915 10919 10922 10925 10928 10931 10934 10937 10941
10808 10808 10806 10805 10804 10803 10803 10803 10802 10802 10801 10800 10799 10798 10798 10798 10799 10800 10799 10798 10797 10795 10795 10794 10793 10793 10793 10793 10794 10795 10794 10794 10793 10794 10795 10795 10795 10795 10795 10797 10799 10800 10801 10802 10803 10804 10805 10807 10808 10809 10812 10815 10818 10821 10824 10826 10829 10831 10834 10837 10840 10844 10847 10851 10854 10858 10861 10866 10870 10874 10878 10880 10884 10888 10891 10895 10899 10902 10905 10909 10913 10916 10919 10922 10926 10928 10932 10935
10804 10803 10800 10799 10799 10797 10797 10798 10797 10797 10796 10795 10793 10793 10793 10793 10794 10795 10796 10794 10793 10792 10791 10790 10790 10789 10789 10789 10790 10791 10791 10791 10791 10791 10791 10792 10792 10792 10793 10794 10795 10797 10798 10799 10800 10801 10802 10804 10805 10806 10808 10811 10814 10817 10819 10822 10824 10827 10829 10831 10834 10838 10842 10845 10849 10852 10856 10860 10864 10869 10872 10875 10878 10882 10885 10889 10893 10897 10900 10904 10908 10911 10914 10918 10921 10923 10927 10930
10798 10798 10794 10793 10794 10792 10792 10792 10792 10791 10791 10789 10788 10788 10788 10788 10789 10790 10791 10790 10788 10787 10787 10786 10786 10785 10784 10785 10786 10787 10788 10788 10788 10788 10788 10789 10789 10790 10790 10791 10792 10793 10794 10796 10798 10798 10799 10801 10802 10803 10805 10807 10810 10812 10814 10816 10820 10822 10824 10826 10829 10833 10837 10841 10844 10847 10850 10854 10859 10864 10867 10869 10872 10876 10879 10883 10887 10891 10895 10899 10902 10906 10910 10913 10916 10918 10921 10925
10792 10792 10789 10787 10787 10787 10786 10786 10786 10785 10785 10783 10782 10782 10783 10783 10784 10785 10786 10785 10784 10782 10782 10782 10782 10781 10780 10781 10782 10783 10784 10784 10785 10785 10784 10785 10786 10786 10788 10789 10789 10790 10791 10792 10794 10795 10796 10798 10799 10800 10802 10803 10805 10808 10809 10811 10815 10817 10819 10821 10824 10828 10832 10835 10838 10841 10844 10848 10853 10858 10861 10865 10868 10871 10874 10878 10881 10884 10888 10892 10896 10900 10904 10907 10911 10914 10917 10920
10785 10786 10784 10781 10780 10781 10781 10780 10779 10779 10778 10777 10777 10777 10777 10777 10778 10779 10780 10780 10779 10777 10776 10776 10776 10776 10776 10776 10778 10779 10780 10781 10781 10781 10781 10781 10782 10783 10785 10786 10787 10787 10788 10790 10791 10792 10793 10795 10796 10797 10798 10800 10802 10804 10805 10807 10810 10812 10813 10816 10820 10823 10826 10830 10833 10836 10839 10843 10847 10851 10855 10859 10862 10865 10868 10872 10874 10877 10881 10885 10889 10894 10898 10902 10905 10909 10912 10915
10778 10779 10779 10775 10773 10774 10774 10773 10773 10773 10771 10770 10770 10771 10771 10772 10771 10771 10773 10774 10774 10773 10770 10769 10771 10771 10771 10772 10773 10774 10776 10777 10777 10777 10777 10777 10778 10779 10781 10783 10784 10784 10786 10787 10788 10789 10790 10791 10792 10793 10795 10796 10798 10800 10801 10803 10805 10807 10809 10812 10815 10819 10821 10824 10827 10830 10834 10838 10841 10845 10849 10852 10855 10858 10862 10864 10867 10871 10875 10879 10883 10888 10892 10896 10899 10903 10906 10909
10770 10771 10772 10770 10767 10766 10766 10765 10766 10766 10765 10763 10763 10764 10765 10765 10763 10764 10765 10767 10769 10768 10764 10763 10765 10766 10766 10766 10767 10769 10770 10771 10772 10773 10773 10773 10774 10775 10777 10779 10780 10781 10782 10783 10785 10786 10786 10787 10788 10790 10791 10793 10795 10796 10798 10800 10801 10803 10806 10808 10811 10814 10816 10819 10822 10825 10829 10832 10836 10839 10842 10844 10848 10851 10855 10858 10861 10864 10868 10872 10877 10882 10886 10889 10893 10896 10899 10902
10761 10762 10764 10763 10760 10759 10758 10757 10757 10758 10758 10757 10757 10758 10758 10757 10756 10756 10757 10759 10762 10761 10759 10758 10760 10760 10760 10760 10761 10763 10765 10766 10767 10768 10769 10769 10769 10771 10772 10774 10776 10777 10778 10779 10781 10782 10782 10783 10784 10786 10788 10790 10792 10793 10795 10796 10798 10800 10802 10804 10806 10809 10811 10814 10817 10820 10823 10826 10829 10833 10835 10837 10840 10844 10849 10852 10855 10857 10861 10865 10871 10876 10879 10882 10886 10889 10893 10896
10753 10753 10754 10755 10754 10752 10751 10749 10749 10750 10751 10750 10750 10751 10751 10749 10748 10749 10750 10752 10754 10754 10753 10753 10754 10754 10754 10754 10755 10757 10760 10761 10761 10762 10763 10763 10764 10765 10767 10769 10770 10771 10772 10774 10776 10777 10778 10779 10781 10782 10784 10786 10788 10790 10791 10793 10794 10796 10797 10800 10802 10804 10806 10808 10811 10814 10817 10819 10823 10826 10829 10831 10834 10838 10842 10845 10847 10850 10853 10858 10864 10869 10872 10875 10879 10882 10885 10889
10744 10744 10745 10746 10746 10745 10744 10742 10740 10741 10743 10743 10743 10743 10743 10742 10741 10742 10743 10744 10746 10747 10746 10746 10748 10748 10748 10749 10750 10752 10754 10755 10755 10756 10757 10758 10759 10760 10761 10763 10764 10766 10768 10769 10771 10772 10773 10775 10778 10779 10780 10781 10784 10786 10788 10790 10791 10792 10793 10795 10797 10798 10801 10803 10806 10807 10810 10813 10817 10820 10823 10826 10828 10832 10835 10838 10840 10843 10847 10851 10857 10861 10864 10868 10872 10875 10878 10882
10735 10735 10735 10736 10737 10737 10736 10735 10733 10732 10734 10735 10735 10735 10736 10735 10734 10735 10735 10736 10739 10739 10739 10739 10741 10741 10741 10742 10744 10745 10747 10748 10748 10749 10752 10753 10755 10757 10758 10758 10760 10762 10763 10764 10765 10767 10768 10770 10773 10775 10775 10777 10779 10781 10784 10786 10787 10788 10789 10790 10791 10794 10796 10798 10800 10802 10804 10807 10811 10814 10817 10820 10822 10825 10828 10831 10834 10838 10841 10846 10850 10854 10857 10861 10865 10867 10871 10875
10727 10727 10727 10727 10728 10728 10728 10727 10725 10724 10725 10726 10726 10727 10727 10727 10727 10727 10728 10729 10731 10732 10732 10732 10734 10734 10735 10736 10738 10739 10741 10742 10742 10743 10746 10749 10751 10753 10753 10754 10755 10757 10758 10759 10761 10763 10764 10767 10769 10770 10771 10773 10774 10777 10779 10781 10782 10783 10785 10786 10787 10789 10791 10793 10795 10797 10799 10802 10805 10808 10810 10813 10815 10819 10822 10824 10828 10831 10835 10839 10844 10847 10850 10854 10858 10861 10865 10869